| time (UTC) | temp F | wind direction | speed MPH | gust MPH | rain 1hr in | rain 24hr in | rain mn in | humidity % | barometer mb |
| 20260904040153 | 86 | 192 | 2.0 | 9.0 | 0.00 | 0.00 | 0.00 | 100 | 1009.4 |
| 20260904035152 | 86 | 187 | 5.0 | 10.0 | 0.00 | 0.00 | 0.00 | 100 | 1009.4 |
| 20260904034653 | 85 | 191 | 7.0 | 10.0 | 0.00 | 0.00 | 0.00 | 100 | 1009.4 |
| 20260904034150 | 85 | 149 | 4.0 | 11.0 | 0.00 | 0.00 | 0.00 | 100 | 1009.4 |
| 20260904033651 | 85 | 177 | 6.0 | 11.0 | 0.00 | 0.00 | 0.00 | 100 | 1009.4 |
| 20260904033150 | 85 | 185 | 7.0 | 12.0 | 0.00 | 0.00 | 0.00 | 100 | 1009.4 |
| 20260904032649 | 86 | 188 | 6.0 | 14.0 | 0.00 | 0.00 | 0.00 | 100 | 1009.4 |
| 20260904032149 | 85 | 171 | 7.0 | 14.0 | 0.00 | 0.00 | 0.00 | 100 | 1009.4 |
| 20260904031648 | 86 | 180 | 6.0 | 14.0 | 0.00 | 0.00 | 0.00 | 100 | 1009.4 |
| 20260904031147 | 86 | 154 | 7.0 | 15.0 | 0.00 | 0.00 | 0.00 | 100 | 1009.4 |
| 20260904030646 | 88 | 174 | 9.0 | 16.0 | 0.00 | 0.00 | 0.00 | 100 | 1009.4 |
| 20260904030146 | 88 | 177 | 10.0 | 16.0 | 0.00 | 0.00 | 0.00 | 100 | 1009.4 |
| 20260904025904 | 88 | 182 | 9.0 | 15.0 | 0.00 | 0.00 | 0.00 | 100 | 1009.4 |
| 20260904025145 | 88 | 164 | 10.0 | 16.0 | 0.00 | 0.00 | 0.00 | 100 | 1009.4 |
| 20260904024644 | 89 | 167 | 8.0 | 20.0 | 0.00 | 0.00 | 0.00 | 100 | 1009.4 |
| 20260904024144 | 89 | 139 | 10.0 | 20.0 | 0.00 | 0.00 | 0.00 | 100 | 1009.4 |
| 20260904023643 | 90 | 177 | 10.0 | 19.0 | 0.00 | 0.00 | 0.00 | 100 | 1009.4 |
| 20260904023407 | 91 | 161 | 6.0 | 9.0 | 0.00 | 0.00 | 0.00 | 100 | 1009.4 |
| 20260904022642 | 91 | 170 | 5.0 | 7.0 | 0.00 | 0.00 | 0.00 | 100 | 1009.4 |
| 20260904022141 | 91 | 172 | 3.0 | 6.0 | 0.00 | 0.00 | 0.00 | 100 | 1009.4 |
| 20260904021640 | 91 | 168 | 4.0 | 6.0 | 0.00 | 0.00 | 0.00 | 100 | 1009.4 |
| 20260904021140 | 91 | 170 | 3.0 | 6.0 | 0.00 | 0.00 | 0.00 | 100 | 1009.4 |
| 20260904020900 | 92 | 167 | 0.0 | 4.0 | 0.00 | 0.00 | 0.00 | 100 | 1009.4 |
| 20260904020122 | 92 | 167 | 0.0 | 8.0 | 0.00 | 0.00 | 0.00 | 100 | 1009.4 |
| 20260904015841 | 92 | 177 | 4.0 | 8.0 | 0.00 | 0.00 | 0.00 | 100 | 1009.4 |
| 20260904014617 | 92 | 229 | 5.0 | 9.0 | 0.00 | 0.00 | 0.00 | 100 | 1009.4 |
| 20260904014117 | 92 | 196 | 3.0 | 6.0 | 0.00 | 0.00 | 0.00 | 100 | 1009.4 |
| 20260904013115 | 92 | 255 | 3.0 | 9.0 | 0.00 | 0.00 | 0.00 | 100 | 1009.4 |
| 20260904012614 | 93 | 172 | 0.0 | 6.0 | 0.00 | 0.00 | 0.00 | 100 | 1009.4 |
| 20260904012113 | 93 | 265 | 0.0 | 6.0 | 0.00 | 0.00 | 0.00 | 100 | 1009.4 |
| 20260904011613 | 93 | 264 | 3.0 | 4.0 | 0.00 | 0.00 | 0.00 | 100 | 1009.4 |
| 20260904011112 | 93 | 123 | 0.0 | 4.0 | 0.00 | 0.00 | 0.00 | 100 | 1009.4 |
| 20260904010611 | 93 | 136 | 0.0 | 6.0 | 0.00 | 0.00 | 0.00 | 100 | 1009.4 |
| 20260904010110 | 93 | 185 | 0.0 | 6.0 | 0.00 | 0.00 | 0.00 | 100 | 1009.4 |
| 20260904005602 | 94 | 216 | 1.0 | 5.0 | 0.00 | 0.00 | 0.00 | 100 | 1009.4 |
| 20260904005101 | 94 | 257 | 0.0 | 5.0 | 0.00 | 0.00 | 0.00 | 100 | 1009.4 |
| 20260904004548 | 95 | 257 | 0.0 | 6.0 | 0.00 | 0.00 | 0.00 | 100 | 1009.4 |
| 20260904004305 | 95 | 241 | 3.0 | 10.0 | 0.00 | 0.00 | 0.00 | 100 | 1009.4 |
| 20260904003546 | 94 | 279 | 0.0 | 10.0 | 0.00 | 0.00 | 0.00 | 100 | 1009.4 |
| 20260904003046 | 94 | 265 | 3.0 | 9.0 | 0.00 | 0.00 | 0.00 | 100 | 1009.4 |
| 20260904002545 | 94 | 331 | 5.0 | 6.0 | 0.00 | 0.00 | 0.00 | 100 | 1009.4 |
| 20260904002044 | 94 | 300 | 3.0 | 10.0 | 0.00 | 0.00 | 0.00 | 100 | 1009.4 |
| 20260904001543 | 94 | 322 | 4.0 | 10.0 | 0.00 | 0.00 | 0.00 | 100 | 1009.4 |
| 20260904001042 | 94 | 237 | 6.0 | 10.0 | 0.00 | 0.00 | 0.00 | 100 | 1009.4 |
| 20260904000542 | 94 | 261 | 3.0 | 11.0 | 0.00 | 0.00 | 0.00 | 100 | 1009.4 |
| 20260904000304 | 94 | 185 | 1.0 | 11.0 | 0.00 | 0.00 | 0.00 | 100 | 1009.4 |
| 20260903235533 | 95 | 222 | 5.0 | 9.0 | 0.00 | 0.00 | 0.00 | 100 | 1009.4 |
| 20260903235032 | 94 | 203 | 5.0 | 7.0 | 0.00 | 0.00 | 0.00 | 100 | 1009.4 |
| 20260903234531 | 94 | 178 | 0.0 | 7.0 | 0.00 | 0.00 | 0.00 | 100 | 1009.4 |
| 20260903234031 | 95 | 223 | 4.0 | 11.0 | 0.00 | 0.00 | 0.00 | 100 | 1009.4 |
| 20260903233530 | 95 | 174 | 3.0 | 11.0 | 0.00 | 0.00 | 0.00 | 100 | 1009.4 |
| 20260903233246 | 95 | 244 | 7.0 | 11.0 | 0.00 | 0.00 | 0.00 | 100 | 1009.4 |
| 20260903232525 | 95 | 288 | 5.0 | 10.0 | 0.00 | 0.00 | 0.00 | 100 | 1009.4 |
| 20260903232025 | 95 | 354 | 0.0 | 14.0 | 0.00 | 0.00 | 0.00 | 100 | 1009.4 |
| 20260903231746 | 95 | 316 | 3.0 | 14.0 | 0.00 | 0.00 | 0.00 | 100 | 1009.4 |
| 20260903231023 | 95 | 172 | 8.0 | 14.0 | 0.00 | 0.00 | 0.00 | 100 | 1009.4 |
| 20260903230523 | 95 | 172 | 0.0 | 13.0 | 0.00 | 0.00 | 0.00 | 100 | 1009.4 |
| 20260903230022 | 95 | 234 | 7.0 | 13.0 | 0.00 | 0.00 | 0.00 | 100 | 1009.4 |
| 20260903225747 | 94 | 220 | 10.0 | 12.0 | 0.00 | 0.00 | 0.00 | 100 | 1009.4 |
| 20260903224508 | 97 | 241 | 6.0 | 13.0 | 0.00 | 0.00 | 0.00 | 100 | 1009.4 |
| 20260903224007 | 97 | 223 | 8.0 | 13.0 | 0.00 | 0.00 | 0.00 | 100 | 1009.4 |
| 20260903223507 | 95 | 236 | 2.0 | 9.0 | 0.00 | 0.00 | 0.00 | 100 | 1009.4 |
| 20260903223006 | 94 | 286 | 4.0 | 13.0 | 0.00 | 0.00 | 0.00 | 100 | 1009.4 |
| 20260903222459 | 94 | 274 | 6.0 | 13.0 | 0.00 | 0.00 | 0.00 | 100 | 1009.4 |
| 20260903221959 | 93 | 234 | 5.0 | 11.0 | 0.00 | 0.00 | 0.00 | 100 | 1009.4 |
| 20260903221458 | 94 | 247 | 4.0 | 13.0 | 0.00 | 0.00 | 0.00 | 100 | 1009.4 |
| 20260903220957 | 95 | 187 | 6.0 | 14.0 | 0.00 | 0.00 | 0.00 | 100 | 1009.4 |
| 20260903215956 | 95 | 286 | 3.0 | 12.0 | 0.00 | 0.00 | 0.00 | 100 | 1009.4 |
| 20260903215452 | 97 | 310 | 6.0 | 12.0 | 0.00 | 0.00 | 0.00 | 100 | 1009.4 |
| 20260903214951 | 97 | 234 | 8.0 | 12.0 | 0.00 | 0.00 | 0.00 | 100 | 1009.4 |
| 20260903214450 | 96 | 175 | 0.0 | 16.0 | 0.00 | 0.00 | 0.00 | 100 | 1009.4 |
| 20260903213936 | 97 | 227 | 5.0 | 16.0 | 0.00 | 0.00 | 0.00 | 100 | 1009.4 |
| 20260903213435 | 95 | 236 | 4.0 | 15.0 | 0.00 | 0.00 | 0.00 | 100 | 1009.4 |
| 20260903212934 | 95 | 243 | 13.0 | 15.0 | 0.00 | 0.00 | 0.00 | 100 | 1009.4 |
| 20260903212433 | 96 | 199 | 10.0 | 15.0 | 0.00 | 0.00 | 0.00 | 100 | 1009.4 |
| 20260903212159 | 95 | 189 | 4.0 | 19.0 | 0.00 | 0.00 | 0.00 | 100 | 1009.4 |
| 20260903211432 | 93 | 226 | 9.0 | 19.0 | 0.00 | 0.00 | 0.00 | 100 | 1009.4 |
| 20260903210931 | 93 | 229 | 9.0 | 18.0 | 0.00 | 0.00 | 0.00 | 100 | 1009.4 |
| 20260903210432 | 95 | 262 | 3.0 | 14.0 | 0.00 | 0.00 | 0.00 | 100 | 1009.4 |
| 20260903205931 | 95 | 199 | 9.0 | 16.0 | 0.00 | 0.00 | 0.00 | 100 | 1009.4 |
| 20260903205430 | 94 | 234 | 8.0 | 16.0 | 0.00 | 0.00 | 0.00 | 100 | 1009.4 |
| 20260903205153 | 95 | 234 | 9.0 | 16.0 | 0.00 | 0.00 | 0.00 | 100 | 1009.4 |
| 20260903204429 | 97 | 192 | 5.0 | 18.0 | 0.00 | 0.00 | 0.00 | 100 | 1009.4 |
| 20260903203928 | 95 | 215 | 4.0 | 19.0 | 0.00 | 0.00 | 0.00 | 100 | 1009.4 |
| 20260903203427 | 95 | 225 | 5.0 | 19.0 | 0.00 | 0.00 | 0.00 | 100 | 1009.4 |
| 20260903202927 | 97 | 258 | 3.0 | 10.0 | 0.00 | 0.00 | 0.00 | 100 | 1009.4 |
| 20260903202426 | 94 | 330 | 2.0 | 16.0 | 0.00 | 0.00 | 0.00 | 100 | 1009.4 |
| 20260903201925 | 94 | 251 | 4.0 | 16.0 | 0.00 | 0.00 | 0.00 | 100 | 1009.4 |
| 20260903201425 | 95 | 198 | 11.0 | 16.0 | 0.00 | 0.00 | 0.00 | 100 | 1009.4 |
| 20260903201144 | 95 | 220 | 5.0 | 11.0 | 0.00 | 0.00 | 0.00 | 100 | 1009.4 |
| 20260903200424 | 92 | 203 | 2.0 | 12.0 | 0.00 | 0.00 | 0.00 | 100 | 1009.4 |
| 20260903200140 | 92 | 177 | 6.0 | 13.0 | 0.00 | 0.00 | 0.00 | 100 | 1009.4 |
| 20260903195423 | 93 | 184 | 6.0 | 17.0 | 0.00 | 0.00 | 0.00 | 100 | 1009.4 |
| 20260903194920 | 92 | 184 | 9.0 | 17.0 | 0.00 | 0.00 | 0.00 | 100 | 1009.4 |
| 20260903194419 | 93 | 157 | 11.0 | 16.0 | 0.00 | 0.00 | 0.00 | 100 | 1009.4 |
| 20260903193918 | 93 | 94 | 2.0 | 12.0 | 0.00 | 0.00 | 0.00 | 100 | 1009.4 |
| 20260903193418 | 94 | 203 | 6.0 | 12.0 | 0.00 | 0.00 | 0.00 | 100 | 1009.4 |
| 20260903193142 | 91 | 150 | 9.0 | 12.0 | 0.00 | 0.00 | 0.00 | 100 | 1009.4 |
| 20260903191916 | 92 | 246 | 3.0 | 15.0 | 0.00 | 0.00 | 0.00 | 100 | 1009.4 |
| 20260903191634 | 93 | 189 | 6.0 | 15.0 | 0.00 | 0.00 | 0.00 | 100 | 1009.4 |
| 20260903191129 | 92 | 194 | 10.0 | 15.0 | 0.00 | 0.00 | 0.00 | 100 | 1009.4 |
| 20260903190410 | 93 | 191 | 5.0 | 12.0 | 0.00 | 0.00 | 0.00 | 100 | 1009.4 |
| 20260903185909 | 92 | 77 | 7.0 | 12.0 | 0.00 | 0.00 | 0.00 | 100 | 1009.4 |
| 20260903185632 | 90 | 156 | 9.0 | 11.0 | 0.00 | 0.00 | 0.00 | 100 | 1009.4 |
| 20260903184909 | 89 | 212 | 4.0 | 11.0 | 0.00 | 0.00 | 0.00 | 100 | 1009.4 |
| 20260903184408 | 89 | 199 | 4.0 | 10.0 | 0.00 | 0.00 | 0.00 | 100 | 1009.4 |
| 20260903184125 | 89 | 199 | 3.0 | 10.0 | 0.00 | 0.00 | 0.00 | 100 | 1009.4 |
| 20260903183406 | 91 | 229 | 8.0 | 12.0 | 0.00 | 0.00 | 0.00 | 100 | 1009.4 |
| 20260903182906 | 87 | 126 | 7.0 | 12.0 | 0.00 | 0.00 | 0.00 | 100 | 1009.4 |
| 20260903182405 | 90 | 122 | 4.0 | 9.0 | 0.00 | 0.00 | 0.00 | 100 | 1009.4 |
| 20260903181904 | 93 | 113 | 2.0 | 13.0 | 0.00 | 0.00 | 0.00 | 100 | 1009.4 |
| 20260903181402 | 92 | 189 | 4.0 | 13.0 | 0.00 | 0.00 | 0.00 | 100 | 1009.4 |
| 20260903181121 | 90 | 187 | 10.0 | 13.0 | 0.00 | 0.00 | 0.00 | 100 | 1009.4 |
| 20260903180401 | 92 | 158 | 1.0 | 10.0 | 0.00 | 0.00 | 0.00 | 100 | 1009.4 |
| 20260903175855 | 92 | 149 | 4.0 | 10.0 | 0.00 | 0.00 | 0.00 | 100 | 1009.4 |
| 20260903175349 | 90 | 160 | 6.0 | 11.0 | 0.00 | 0.00 | 0.00 | 100 | 1009.4 |
| 20260903174848 | 87 | 196 | 6.0 | 11.0 | 0.00 | 0.00 | 0.00 | 100 | 1009.4 |
| 20260903174614 | 87 | 151 | 2.0 | 11.0 | 0.00 | 0.00 | 0.00 | 100 | 1009.4 |
| 20260903173848 | 87 | 136 | 6.0 | 11.0 | 0.00 | 0.00 | 0.00 | 100 | 1009.4 |
| 20260903173347 | 86 | 118 | 7.0 | 11.0 | 0.00 | 0.00 | 0.00 | 100 | 1009.4 |
| 20260903172846 | 85 | 220 | 5.0 | 11.0 | 0.00 | 0.00 | 0.00 | 100 | 1009.4 |
| 20260903172346 | 87 | 185 | 5.0 | 7.0 | 0.00 | 0.00 | 0.00 | 100 | 1009.4 |
| 20260903171845 | 87 | 167 | 4.0 | 8.0 | 0.00 | 0.00 | 0.00 | 100 | 1009.4 |
| 20260903171344 | 87 | 237 | 0.0 | 9.0 | 0.00 | 0.00 | 0.00 | 100 | 1009.4 |
| 20260903171053 | 87 | 253 | 5.0 | 9.0 | 0.00 | 0.00 | 0.00 | 100 | 1009.4 |
| 20260903170335 | 87 | 270 | 1.0 | 9.0 | 0.00 | 0.00 | 0.00 | 100 | 1009.4 |
| 20260903165834 | 86 | 157 | 3.0 | 9.0 | 0.00 | 0.00 | 0.00 | 100 | 1009.4 |
| 20260903165334 | 85 | 246 | 1.0 | 7.0 | 0.00 | 0.00 | 0.00 | 100 | 1009.4 |
| 20260903164833 | 83 | 126 | 2.0 | 6.0 | 0.00 | 0.00 | 0.00 | 100 | 1009.4 |
| 20260903164330 | 84 | 239 | 0.0 | 6.0 | 0.00 | 0.00 | 0.00 | 100 | 1009.4 |
| 20260903163831 | 83 | 285 | 1.0 | 8.0 | 0.00 | 0.00 | 0.00 | 100 | 1009.4 |
| 20260903163330 | 82 | 219 | 2.0 | 9.0 | 0.00 | 0.00 | 0.00 | 100 | 1009.4 |
| 20260903162829 | 82 | 205 | 6.0 | 9.0 | 0.00 | 0.00 | 0.00 | 100 | 1009.4 |
| 20260903161828 | 81 | 291 | 2.0 | 9.0 | 0.00 | 0.00 | 0.00 | 100 | 1009.4 |
| 20260903161323 | 80 | 194 | 4.0 | 8.0 | 0.00 | 0.00 | 0.00 | 100 | 1009.4 |
| 20260903160822 | 81 | 268 | 1.0 | 9.0 | 0.00 | 0.00 | 0.00 | 100 | 1009.4 |
| 20260903160322 | 81 | 219 | 0.0 | 9.0 | 0.00 | 0.00 | 0.00 | 100 | 1009.4 |
| 20260903155819 | 82 | 255 | 6.0 | 9.0 | 0.00 | 0.00 | 0.00 | 100 | 1009.4 |
| 20260903155044 | 81 | 187 | 1.0 | 7.0 | 0.00 | 0.00 | 0.00 | 100 | 1009.4 |
| 20260903154313 | 81 | 222 | 1.0 | 9.0 | 0.00 | 0.00 | 0.00 | 100 | 1009.4 |
| 20260903154035 | 80 | 196 | 0.0 | 9.0 | 0.00 | 0.00 | 0.00 | 100 | 1009.4 |
| 20260903153531 | 80 | 247 | 5.0 | 9.0 | 0.00 | 0.00 | 0.00 | 100 | 1009.4 |
| 20260903152809 | 80 | 243 | 7.0 | 9.0 | 0.00 | 0.00 | 0.00 | 100 | 1009.4 |
| 20260903152309 | 80 | 262 | 2.0 | 7.0 | 0.00 | 0.00 | 0.00 | 100 | 1009.4 |
| 20260903151808 | 79 | 203 | 3.0 | 7.0 | 0.00 | 0.00 | 0.00 | 100 | 1009.4 |
| 20260903151305 | 78 | 254 | 5.0 | 6.0 | 0.00 | 0.00 | 0.00 | 100 | 1009.4 |
| 20260903150804 | 79 | 189 | 0.0 | 7.0 | 0.00 | 0.00 | 0.00 | 100 | 1009.4 |
| 20260903150258 | 79 | 212 | 2.0 | 8.0 | 0.00 | 0.00 | 0.00 | 100 | 1009.4 |
| 20260903145757 | 78 | 216 | 3.0 | 9.0 | 0.00 | 0.00 | 0.00 | 100 | 1009.4 |
| 20260903145253 | 77 | 251 | 5.0 | 9.0 | 0.00 | 0.00 | 0.00 | 100 | 1009.4 |
| 20260903144752 | 77 | 225 | 3.0 | 8.0 | 0.00 | 0.00 | 0.00 | 100 | 1009.4 |
| 20260903144240 | 78 | 225 | 2.0 | 8.0 | 0.00 | 0.00 | 0.00 | 100 | 1009.4 |
| 20260903143739 | 77 | 240 | 6.0 | 8.0 | 0.00 | 0.00 | 0.00 | 100 | 1009.4 |
| 20260903143238 | 77 | 226 | 3.0 | 7.0 | 0.00 | 0.00 | 0.00 | 100 | 1009.4 |
| 20260903143000 | 77 | 70 | 0.0 | 0.0 | 0.00 | 0.00 | 0.00 | 100 | 1009.4 |
| 20260903142233 | 76 | 70 | 0.0 | 0.0 | 0.00 | 0.00 | 0.00 | 100 | 1009.4 |
| 20260903141952 | 77 | 70 | 0.0 | 0.0 | 0.00 | 0.00 | 0.00 | 100 | 1009.4 |
| 20260903141228 | 76 | 70 | 0.0 | 0.0 | 0.00 | 0.00 | 0.00 | 100 | 1009.4 |
| 20260903140723 | 76 | 70 | 0.0 | 1.0 | 0.00 | 0.00 | 0.00 | 100 | 1009.4 |
| 20260903140222 | 74 | 70 | 0.0 | 1.0 | 0.00 | 0.00 | 0.00 | 100 | 1009.4 |
| 20260903135720 | 75 | 70 | 0.0 | 1.0 | 0.00 | 0.00 | 0.00 | 100 | 1009.4 |
| 20260903135437 | 74 | 270 | 0.0 | 0.0 | 0.00 | 0.00 | 0.00 | 100 | 1009.4 |
| 20260903134709 | 73 | 270 | 0.0 | 0.0 | 0.00 | 0.00 | 0.00 | 100 | 1009.4 |
| 20260903134152 | 72 | 270 | 0.0 | 2.0 | 0.00 | 0.00 | 0.00 | 100 | 1009.4 |
| 20260903133647 | 71 | 270 | 0.0 | 2.0 | 0.00 | 0.00 | 0.00 | 100 | 1009.4 |
| 20260903133122 | 73 | 113 | 0.0 | 4.0 | 0.00 | 0.00 | 0.00 | 100 | 1009.4 |
| 20260903132615 | 73 | 104 | 2.0 | 4.0 | 0.00 | 0.00 | 0.00 | 100 | 1009.4 |
| 20260903132115 | 72 | 104 | 2.0 | 4.0 | 0.00 | 0.00 | 0.00 | 100 | 1009.4 |
| 20260903131614 | 71 | 104 | 3.0 | 4.0 | 0.00 | 0.00 | 0.00 | 100 | 1009.4 |
| 20260903131113 | 71 | 119 | 4.0 | 4.0 | 0.00 | 0.00 | 0.00 | 100 | 1009.4 |
| 20260903130612 | 70 | 21 | 0.0 | 1.0 | 0.00 | 0.00 | 0.00 | 100 | 1009.4 |
| 20260903130112 | 70 | 21 | 0.0 | 0.0 | 0.00 | 0.00 | 0.00 | 100 | 1009.4 |
| 20260903125555 | 70 | 21 | 0.0 | 0.0 | 0.00 | 0.00 | 0.00 | 100 | 1009.4 |
| 20260903125051 | 70 | 21 | 0.0 | 0.0 | 0.00 | 0.00 | 0.00 | 100 | 1009.4 |
| 20260903124539 | 71 | 21 | 0.0 | 0.0 | 0.00 | 0.00 | 0.00 | 100 | 1009.4 |
| 20260903124039 | 71 | 21 | 0.0 | 0.0 | 0.00 | 0.00 | 0.00 | 100 | 1009.4 |
| 20260903123530 | 72 | 21 | 0.0 | 3.0 | 0.00 | 0.00 | 0.00 | 100 | 1009.4 |
| 20260903123224 | 72 | 21 | 0.0 | 5.0 | 0.00 | 0.00 | 0.00 | 100 | 1009.4 |
| 20260903122454 | 73 | 21 | 0.0 | 5.0 | 0.00 | 0.00 | 0.00 | 100 | 1009.4 |
| 20260903121944 | 73 | 112 | 0.0 | 0.0 | 0.00 | 0.00 | 0.00 | 100 | 1009.4 |
| 20260903121429 | 74 | 112 | 0.0 | 0.0 | 0.00 | 0.00 | 0.00 | 100 | 1009.4 |
| 20260903120924 | 75 | 112 | 0.0 | 0.0 | 0.00 | 0.00 | 0.00 | 100 | 1009.4 |
| 20260903120414 | 74 | 112 | 0.0 | 0.0 | 0.00 | 0.00 | 0.00 | 100 | 1009.4 |
| 20260903115855 | 75 | 112 | 0.0 | 5.0 | 0.00 | 0.00 | 0.00 | 100 | 1009.4 |
| 20260903115343 | 76 | 112 | 0.0 | 9.0 | 0.00 | 0.00 | 0.00 | 100 | 1009.4 |
| 20260903114843 | 76 | 23 | 2.0 | 9.0 | 0.00 | 0.00 | 0.00 | 100 | 1009.4 |
| 20260903114324 | 76 | 258 | 2.0 | 7.0 | 0.00 | 0.00 | 0.00 | 100 | 1009.4 |
| 20260903114047 | 76 | 177 | 0.0 | 5.0 | 0.00 | 0.00 | 0.00 | 100 | 1009.4 |
| 20260903113311 | 76 | 329 | 1.0 | 9.0 | 0.00 | 0.00 | 0.00 | 100 | 1009.4 |
| 20260903112802 | 77 | 288 | 1.0 | 9.0 | 0.00 | 0.00 | 0.00 | 100 | 1009.4 |
| 20260903112305 | 76 | 265 | 5.0 | 12.0 | 0.00 | 0.00 | 0.00 | 100 | 1009.4 |
| 20260903112026 | 77 | 285 | 7.0 | 13.0 | 0.00 | 0.00 | 0.00 | 100 | 1009.4 |
| 20260903111300 | 77 | 265 | 9.0 | 13.0 | 0.00 | 0.00 | 0.00 | 100 | 1009.4 |
| 20260903111017 | 77 | 261 | 9.0 | 13.0 | 0.00 | 0.00 | 0.00 | 100 | 1009.4 |
| 20260903110259 | 77 | 244 | 9.0 | 13.0 | 0.00 | 0.00 | 0.00 | 100 | 1009.4 |
| 20260903105759 | 77 | 264 | 9.0 | 14.0 | 0.00 | 0.00 | 0.00 | 100 | 1009.4 |
| 20260903105258 | 78 | 257 | 10.0 | 14.0 | 0.00 | 0.00 | 0.00 | 100 | 1009.4 |
| 20260903104758 | 77 | 246 | 10.0 | 13.0 | 0.00 | 0.00 | 0.00 | 100 | 1009.4 |
| 20260903104257 | 78 | 247 | 9.0 | 13.0 | 0.00 | 0.00 | 0.00 | 100 | 1009.4 |
| 20260903103255 | 78 | 254 | 10.0 | 15.0 | 0.00 | 0.00 | 0.00 | 100 | 1009.4 |
| 20260903102754 | 78 | 250 | 11.0 | 17.0 | 0.00 | 0.00 | 0.00 | 100 | 1009.4 |
| 20260903102255 | 78 | 257 | 10.0 | 17.0 | 0.00 | 0.00 | 0.00 | 100 | 1009.4 |
| 20260903101754 | 78 | 262 | 10.0 | 16.0 | 0.00 | 0.00 | 0.00 | 100 | 1009.4 |
| 20260903101253 | 78 | 258 | 11.0 | 17.0 | 0.00 | 0.00 | 0.00 | 100 | 1009.4 |
| 20260903100752 | 78 | 261 | 11.0 | 17.0 | 0.00 | 0.00 | 0.00 | 100 | 1009.4 |
| 20260903100252 | 78 | 250 | 11.0 | 14.0 | 0.00 | 0.00 | 0.00 | 100 | 1009.4 |
| 20260903095751 | 78 | 250 | 9.0 | 11.0 | 0.00 | 0.00 | 0.00 | 100 | 1009.4 |
| 20260903095508 | 77 | 267 | 7.0 | 9.0 | 0.00 | 0.00 | 0.00 | 100 | 1009.4 |
| 20260903095012 | 76 | 265 | 6.0 | 8.0 | 0.00 | 0.00 | 0.00 | 100 | 1009.4 |
| 20260903094250 | 76 | 246 | 6.0 | 8.0 | 0.00 | 0.00 | 0.00 | 100 | 1009.4 |
| 20260903093749 | 73 | 250 | 6.0 | 7.0 | 0.00 | 0.00 | 0.00 | 100 | 1009.4 |
| 20260903093248 | 70 | 247 | 2.0 | 6.0 | 0.00 | 0.00 | 0.00 | 100 | 1009.4 |
| 20260903092748 | 69 | 142 | 0.0 | 0.0 | 0.00 | 0.00 | 0.00 | 100 | 1009.4 |
| 20260903092225 | 70 | 142 | 0.0 | 0.0 | 0.00 | 0.00 | 0.00 | 100 | 1009.4 |
| 20260903091658 | 70 | 142 | 0.0 | 0.0 | 0.00 | 0.00 | 0.00 | 100 | 1009.4 |
| 20260903091130 | 72 | 142 | 0.0 | 0.0 | 0.00 | 0.00 | 0.00 | 100 | 1009.4 |
| 20260903090624 | 72 | 142 | 0.0 | 0.0 | 0.00 | 0.00 | 0.00 | 100 | 1009.4 |
| 20260903090344 | 72 | 142 | 0.0 | 0.0 | 0.00 | 0.00 | 0.00 | 100 | 1009.4 |
| 20260903085619 | 72 | 142 | 0.0 | 0.0 | 0.00 | 0.00 | 0.00 | 100 | 1009.4 |
| 20260903085116 | 73 | 142 | 0.0 | 0.0 | 0.00 | 0.00 | 0.00 | 100 | 1009.4 |
| 20260903084836 | 74 | 142 | 0.0 | 0.0 | 0.00 | 0.00 | 0.00 | 100 | 1009.4 |
| 20260903084109 | 72 | 142 | 0.0 | 0.0 | 0.00 | 0.00 | 0.00 | 100 | 1009.4 |
| 20260903083821 | 66 | 142 | 0.0 | 0.0 | 0.00 | 0.00 | 0.00 | 100 | 1009.4 |
| 20260903083047 | 71 | 142 | 0.0 | 0.0 | 0.00 | 0.00 | 0.00 | 100 | 1009.4 |
| 20260903082532 | 71 | 142 | 0.0 | 0.0 | 0.00 | 0.00 | 0.00 | 100 | 1009.4 |
| 20260903082015 | 71 | 142 | 0.0 | 0.0 | 0.00 | 0.00 | 0.00 | 100 | 1009.4 |
| 20260903081500 | 75 | 142 | 0.0 | 0.0 | 0.00 | 0.00 | 0.00 | 100 | 1009.4 |
| 20260903081023 | 74 | 142 | 0.0 | 0.0 | 0.00 | 0.00 | 0.00 | 100 | 1009.4 |
| 20260903080450 | 70 | 142 | 0.0 | 0.0 | 0.00 | 0.00 | 0.00 | 100 | 1009.4 |
| 20260903075957 | 72 | 142 | 0.0 | 0.0 | 0.00 | 0.00 | 0.00 | 100 | 1009.4 |
| 20260903075703 | 75 | 142 | 0.0 | 0.0 | 0.00 | 0.00 | 0.00 | 100 | 1009.4 |
| 20260903075157 | 75 | 142 | 0.0 | 0.0 | 0.00 | 0.00 | 0.00 | 100 | 1009.4 |
| 20260903074419 | 77 | 142 | 0.0 | 4.0 | 0.00 | 0.00 | 0.00 | 100 | 1009.4 |
| 20260903073908 | 75 | 142 | 0.0 | 4.0 | 0.00 | 0.00 | 0.00 | 100 | 1009.4 |
| 20260903073405 | 76 | 149 | 3.0 | 4.0 | 0.00 | 0.00 | 0.00 | 100 | 1009.4 |
| 20260903072904 | 75 | 127 | 3.0 | 4.0 | 0.00 | 0.00 | 0.00 | 100 | 1009.4 |
| 20260903072627 | 76 | 28 | 0.0 | 0.0 | 0.00 | 0.00 | 0.00 | 100 | 1009.4 |
| 20260903071853 | 76 | 28 | 0.0 | 0.0 | 0.00 | 0.00 | 0.00 | 100 | 1009.4 |
| 20260903071344 | 76 | 28 | 0.0 | 0.0 | 0.00 | 0.00 | 0.00 | 100 | 1009.4 |
| 20260903070830 | 77 | 28 | 0.0 | 0.0 | 0.00 | 0.00 | 0.00 | 100 | 1009.4 |
| 20260903070319 | 71 | 28 | 0.0 | 0.0 | 0.00 | 0.00 | 0.00 | 100 | 1009.4 |
| 20260903065812 | 71 | 28 | 0.0 | 0.0 | 0.00 | 0.00 | 0.00 | 100 | 1009.4 |
| 20260903065255 | 74 | 28 | 0.0 | 0.0 | 0.00 | 0.00 | 0.00 | 100 | 1009.4 |
| 20260903064751 | 75 | 28 | 0.0 | 0.0 | 0.00 | 0.00 | 0.00 | 100 | 1009.4 |
| 20260903064246 | 76 | 28 | 0.0 | 0.0 | 0.00 | 0.00 | 0.00 | 100 | 1009.4 |
| 20260903063735 | 76 | 28 | 0.0 | 0.0 | 0.00 | 0.00 | 0.00 | 100 | 1009.4 |
| 20260903063230 | 78 | 28 | 0.0 | 0.0 | 0.00 | 0.00 | 0.00 | 100 | 1009.4 |
| 20260903062713 | 80 | 28 | 0.0 | 4.0 | 0.00 | 0.00 | 0.00 | 100 | 1009.4 |
| 20260903062146 | 80 | 28 | 1.0 | 4.0 | 0.00 | 0.00 | 0.00 | 100 | 1009.4 |
| 20260903061643 | 83 | 240 | 0.0 | 2.0 | 0.00 | 0.00 | 0.00 | 100 | 1009.4 |
| 20260903061139 | 85 | 240 | 0.0 | 4.0 | 0.00 | 0.00 | 0.00 | 100 | 1009.4 |
| 20260903060628 | 85 | 240 | 0.0 | 6.0 | 0.00 | 0.00 | 0.00 | 100 | 1009.4 |
| 20260903060116 | 85 | 251 | 3.0 | 6.0 | 0.00 | 0.00 | 0.00 | 100 | 1009.4 |
| 20260903055615 | 85 | 261 | 2.0 | 6.0 | 0.00 | 0.00 | 0.00 | 100 | 1009.4 |
| 20260903055114 | 85 | 268 | 4.0 | 7.0 | 0.00 | 0.00 | 0.00 | 100 | 1009.4 |
| 20260903054614 | 85 | 289 | 5.0 | 7.0 | 0.00 | 0.00 | 0.00 | 100 | 1009.4 |
| 20260903053613 | 86 | 271 | 5.0 | 8.0 | 0.00 | 0.00 | 0.00 | 100 | 1009.4 |
| 20260903053112 | 85 | 268 | 5.0 | 6.0 | 0.00 | 0.00 | 0.00 | 100 | 1009.4 |
| 20260903052611 | 85 | 282 | 5.0 | 6.0 | 0.00 | 0.00 | 0.00 | 100 | 1009.4 |
| 20260903052110 | 85 | 296 | 5.0 | 6.0 | 0.00 | 0.00 | 0.00 | 100 | 1009.4 |
| 20260903051609 | 85 | 274 | 4.0 | 5.0 | 0.00 | 0.00 | 0.00 | 100 | 1009.4 |
| 20260903051109 | 85 | 298 | 4.0 | 5.0 | 0.00 | 0.00 | 0.00 | 100 | 1009.4 |
| 20260903050609 | 85 | 260 | 1.0 | 4.0 | 0.00 | 0.00 | 0.00 | 100 | 1009.4 |
| 20260903050104 | 86 | 289 | 0.0 | 6.0 | 0.00 | 0.00 | 0.00 | 100 | 1009.4 |
| 20260903045603 | 86 | 289 | 0.0 | 6.0 | 0.00 | 0.00 | 0.00 | 100 | 1009.4 |
| 20260903045324 | 85 | 278 | 4.0 | 6.0 | 0.00 | 0.00 | 0.00 | 100 | 1009.4 |
| 20260903044600 | 83 | 278 | 0.0 | 0.0 | 0.00 | 0.00 | 0.00 | 100 | 1009.4 |
| 20260903044312 | 84 | 278 | 0.0 | 0.0 | 0.00 | 0.00 | 0.00 | 100 | 1009.4 |
| 20260903043546 | 84 | 278 | 0.0 | 0.0 | 0.00 | 0.00 | 0.00 | 100 | 1009.4 |
| 20260903043036 | 85 | 278 | 0.0 | 0.0 | 0.00 | 0.00 | 0.00 | 100 | 1009.4 |
| 20260903042527 | 86 | 278 | 0.0 | 0.0 | 0.00 | 0.00 | 0.00 | 100 | 1009.4 |
| 20260903042017 | 84 | 278 | 0.0 | 0.0 | 0.00 | 0.00 | 0.00 | 100 | 1009.4 |
| 20260903041451 | 86 | 278 | 0.0 | 0.0 | 0.00 | 0.00 | 0.00 | 100 | 1009.4 |
| 20260903040947 | 86 | 278 | 0.0 | 3.0 | 0.00 | 0.00 | 0.00 | 100 | 1009.4 |
| 20260903040445 | 86 | 278 | 0.0 | 4.0 | 0.00 | 0.00 | 0.00 | 100 | 1009.4 |